Cachuma Lake Weather Center

Moon Phase Calendar



Cachuma Lake Water Level
Online Cameras

 


      

Current Conditions in Santa Ynez
6/20/2024 9:26:56 AM

62°F
Feels Like 62
Clouds
Humidity
86%
Pressure
29.85"
Wind
6.9 mph (SE)
Dew Point
57°F
UV Index
3/10 (Moderate)
Visibility
6 mi

Hourly Forecast

Date & Time Thu, Jun 20
9:00 AM
Thu, Jun 20
10:00 AM
Thu, Jun 20
11:00 AM
Thu, Jun 20
12:00 PM
Thu, Jun 20
1:00 PM
Thu, Jun 20
2:00 PM
Thu, Jun 20
3:00 PM
Thu, Jun 20
4:00 PM
Thu, Jun 20
5:00 PM
Thu, Jun 20
6:00 PM
Thu, Jun 20
7:00 PM
Thu, Jun 20
8:00 PM
Thu, Jun 20
9:00 PM
Thu, Jun 20
10:00 PM
Thu, Jun 20
11:00 PM
Fri, Jun 21
12:00 AM
Fri, Jun 21
1:00 AM
Fri, Jun 21
2:00 AM
Fri, Jun 21
3:00 AM
Fri, Jun 21
4:00 AM
Fri, Jun 21
5:00 AM
Fri, Jun 21
6:00 AM
Fri, Jun 21
7:00 AM
Fri, Jun 21
8:00 AM
Fri, Jun 21
9:00 AM
Fri, Jun 21
10:00 AM
Fri, Jun 21
11:00 AM
Fri, Jun 21
12:00 PM
Fri, Jun 21
1:00 PM
Fri, Jun 21
2:00 PM
Fri, Jun 21
3:00 PM
Fri, Jun 21
4:00 PM
Fri, Jun 21
5:00 PM
Fri, Jun 21
6:00 PM
Fri, Jun 21
7:00 PM
Fri, Jun 21
8:00 PM
Fri, Jun 21
9:00 PM
Fri, Jun 21
10:00 PM
Fri, Jun 21
11:00 PM
Sat, Jun 22
12:00 AM
Sat, Jun 22
1:00 AM
Sat, Jun 22
2:00 AM
Sat, Jun 22
3:00 AM
Sat, Jun 22
4:00 AM
Sat, Jun 22
5:00 AM
Sat, Jun 22
6:00 AM
Sat, Jun 22
7:00 AM
Sat, Jun 22
8:00 AM
Condition
Clouds

Clouds

Clouds

Clouds

Clouds

Clear

Clear

Clear

Clear

Clear

Clear

Clear

Clear

Clear

Clear

Clear

Clear

Clear

Clear

Clear

Clear

Clear

Clear

Clear

Clear

Clear

Clear

Clear

Clear

Clear

Clear

Clear

Clear

Clear

Clear

Clear

Clear

Clear

Clear

Clear

Clear

Clear

Clear

Clear

Clear

Clear

Clear

Clear
Temperature 62°F66°F71°F77°F83°F88°F88°F88°F88°F85°F79°F69°F64°F64°F64°F64°F65°F65°F65°F64°F64°F64°F70°F78°F84°F88°F91°F92°F93°F94°F95°F95°F94°F93°F89°F78°F74°F72°F71°F69°F69°F68°F67°F66°F66°F66°F72°F81°F
Feels Like 62°F65°F71°F76°F81°F84°F85°F85°F84°F82°F79°F68°F62°F62°F62°F63°F63°F63°F63°F62°F61°F62°F68°F77°F81°F84°F87°F88°F89°F90°F91°F91°F90°F89°F86°F77°F72°F70°F69°F68°F67°F66°F65°F64°F65°F64°F70°F80°F
Cloudiness 100%80%60%40%20%0%0%0%0%0%0%0%0%0%0%0%0%0%0%0%0%0%0%0%0%0%0%0%0%0%0%0%0%0%0%0%0%0%0%0%0%0%0%0%0%0%0%0%
Visibility 6 mi6 mi6 mi6 mi6 mi6 mi6 mi6 mi6 mi6 mi6 mi6 mi6 mi6 mi6 mi6 mi6 mi6 mi6 mi6 mi6 mi6 mi6 mi6 mi6 mi6 mi6 mi6 mi6 mi6 mi6 mi6 mi6 mi6 mi6 mi6 mi6 mi6 mi6 mi6 mi6 mi6 mi6 mi6 mi6 mi6 mi6 mi6 mi
Precipitation 0%0%0%0%0%0%0%0%0%0%0%0%0%0%0%0%0%0%0%0%0%0%0%0%0%0%0%0%0%0%0%0%0%0%0%0%0%0%0%0%0%0%0%0%0%0%0%0%
Humidity 86%72%58%44%30%19%18%18%19%20%25%38%46%47%46%44%41%40%40%39%38%37%32%23%19%16%14%15%15%15%15%15%16%16%20%31%35%37%38%39%38%40%43%46%39%39%36%25%
Dew Point 57°F56°F56°F53°F48°F43°F43°F43°F43°F42°F41°F42°F42°F42°F42°F41°F41°F40°F39°F39°F38°F37°F39°F39°F39°F39°F40°F41°F42°F43°F44°F45°F45°F44°F45°F45°F44°F44°F43°F42°F41°F41°F42°F42°F40°F40°F43°F43°F
Pressure 29.85"29.85"29.83"29.83"29.8"29.77"29.77"29.74"29.74"29.74"29.74"29.77"29.77"29.77"29.77"29.77"29.74"29.74"29.74"29.74"29.74"29.74"29.74"29.77"29.74"29.74"29.74"29.74"29.74"29.74"29.71"29.71"29.68"29.68"29.71"29.71"29.74"29.74"29.74"29.77"29.77"29.77"29.77"29.77"29.77"29.77"29.8"29.8"
Wind Speed 3.8 mph4.7 mph5.9 mph6.9 mph7.8 mph7.5 mph6.3 mph5.2 mph3.5 mph3.8 mph5.1 mph5.8 mph6.9 mph6.5 mph6 mph5.4 mph4.8 mph4.3 mph3.8 mph4.2 mph4 mph4.2 mph2.9 mph1.2 mph3.1 mph4.6 mph5.8 mph6.6 mph6.9 mph6.6 mph6.2 mph5.4 mph4.9 mph3.9 mph2.4 mph3.3 mph4.8 mph4.2 mph3.2 mph2.7 mph2.2 mph3.4 mph3.9 mph4.5 mph4.3 mph3.5 mph2.2 mph2 mph
Wind
Direction
220°
SW
230°
SW
217°
SW
205°
SSW
202°
SSW
205°
SSW
207°
SSW
219°
SW
248°
WSW
307°
NW
336°
NNW
355°
N

N
16°
NNE
22°
NNE
31°
NNE
37°
NE
38°
NE
47°
NE
61°
ENE
58°
ENE
51°
NE
64°
ENE
180°
S
220°
SW
216°
SW
215°
SW
203°
SSW
200°
SSW
212°
SSW
222°
SW
223°
SW
230°
SW
257°
WSW
271°
W
359°
N
24°
NNE
43°
NE
51°
NE
65°
ENE
59°
ENE
100°
E
99°
E
91°
E
67°
ENE
71°
ENE
87°
E
202°
SSW

Daily Forecast

Date High Low Precip. Humidity
Today
Jun 20

Clouds
88 °F
58 °F
0%
30%
Friday
Jun 21

Clear
95 °F
64 °F
0%
15%
Saturday
Jun 22

Clear
96 °F
66 °F
0%
14%
Sunday
Jun 23

Clear
95 °F
67 °F
0%
10%
Monday
Jun 24

Clouds
93 °F
64 °F
0%
14%
Tuesday
Jun 25

Clear
94 °F
64 °F
0%
14%
Wednesday
Jun 26

Clear
98 °F
66 °F
0%
12%
Thursday
Jun 27

Clear
103 °F
62 °F
0%
8%
Friday
Jun 28

Clear
89 °F
60 °F
0%
16%
Saturday
Jun 29

Clear
83 °F
56 °F
0%
36%
Sunday
Jun 30

Clear
93 °F
61 °F
0%
19%
Monday
Jul 1

Clear
98 °F
68 °F
0%
11%
Tuesday
Jul 2

Clear
99 °F
68 °F
0%
9%
Wednesday
Jul 3

Rain
92 °F
66 °F
69%
18%
Thursday
Jul 4

Clear
91 °F
62 °F
0%
17%
Friday
Jul 5

Clear
93 °F
63 °F
0%
12%

Temperature 8-14 Day Outlook



Precipitation 8-14 Day Outlook






About Us
Contact Us
Site Map
Search Site
Advertise With Us
   
Cachuma.USLakes.info
THE CACHUMA LAKE WEBSITE

Copyright 2024, Lakes Online
Privacy    |    Legal